Left ArrowRight Arrow

Hourly Observations for March 13, 2022

Temp ( °F °C ) Dew Point ( °F °C ) Humidity (%) Winds ( mph kmh ) Pressure ( in mb ) Visibility ( mi km ) Precip ( " mm )
12:59 am 00:59 Mostly Clear 30 -1.1 8 -13.3 39 39 WNW 23 37 30.19 1022 10 16 0.00 0.00
1:59 am 01:59 Mostly Clear 29 -1.7 10 -12.2 45 45 WNW 22 35 30.20 1023 10 16 0.00 0.00
3:59 am 03:59 Mostly Clear 29 -1.7 9 -12.8 43 43 NW 18 30 30.22 1023 10 16 0.00 0.00
4:59 am 04:59 Mostly Clear 28 -2.2 6 -14.4 39 39 NW 20 31 30.26 1025 10 16 0.00 0.00
5:59 am 05:59 Mostly Clear 28 -2.2 8 -13.3 43 43 NW 16 26 30.30 1026 10 16 0.00 0.00
6:59 am 06:59 Mostly Clear 28 -2.2 8 -13.3 43 43 WNW 15 24 30.33 1027 10 16 0.00 0.00
7:59 am 07:59 Mostly Sunny 28 -2.2 12 -11.1 51 51 WNW 10 17 30.37 1029 10 16 0.00 0.00
8:59 am 08:59 Mostly Sunny 31 -0.6 9 -12.8 40 40 WNW 13 20 30.40 1030 10 16 0.00 0.00
9:59 am 09:59 Sunny 32 0 7 -13.9 35 35 W 14 22 30.42 1030 10 16 0.00 0.00
10:59 am 10:59 Sunny 33 0.6 9 -12.8 36 36 W 12 19 30.42 1030 10 16 0.00 0.00
11:59 am 11:59 Sunny 35 1.7 10 -12.2 35 35 W 9 15 30.41 1030 10 16 0.00 0.00
12:59 pm 12:59 Sunny 38 3.3 12 -11.1 34 34 S 9 15 30.40 1029 10 16 0.00 0.00
1:59 pm 13:59 Sunny 41 5 11 -11.7 29 29 SSW 10 17 30.37 1028 10 16 0.00 0.00
2:59 pm 14:59 Sunny 42 5.6 11 -11.7 28 28 SW 10 17 30.34 1027 10 16 0.00 0.00
3:59 pm 15:59 Sunny 44 6.7 13 -10.6 28 28 SSW 13 20 30.31 1027 10 16 0.00 0.00
4:59 pm 16:59 Sunny 45 7.2 13 -10.6 27 27 SW 12 19 30.29 1026 10 16 0.00 0.00
5:59 pm 17:59 Sunny 45 7.2 14 -10 29 29 SSW 15 24 30.29 1026 10 16 0.00 0.00
6:59 pm 18:59 Mostly Sunny 44 6.7 15 -9.4 31 31 SSW 14 22 30.29 1026 10 16 0.00 0.00
7:59 pm 19:59 Clear 43 6.1 17 -8.3 35 35 SSW 8 13 30.31 1026 10 16 0.00 0.00
8:59 pm 20:59 Clear 42 5.6 18 -7.8 38 38 SSW 8 13 30.33 1027 10 16 0.00 0.00
9:59 pm 21:59 Clear 42 5.6 19 -7.2 40 40 SSW 17 28 30.34 1027 10 16 0.00 0.00
10:59 pm 22:59 Clear 42 5.6 19 -7.2 40 40 SW 12 19 30.36 1028 10 16 0.00 0.00
11:59 pm 23:59 Clear 44 6.7 17 -8.3 34 34 SW 14 22 30.37 1029 10 16 0.00 0.00

Powered by Vaisala Xweather